Weather History for Antwerp, Belgium

Change the Weather History Date:

Thursday, October 11, 2012

  Actual Average Record
Temperature  
Mean Temperature 48 °F -  
Max Temperature 60 °F 54 °F 71 °F (2005)
Min Temperature 37 °F 42 °F 37 °F (2012)
Degree Days  
Heating Degree Days 16    
Moisture  
Dew Point 43 °F    
Average Humidity 80    
Maximum Humidity 94    
Minimum Humidity 55    
Precipitation  
Precipitation 0.03 in - - ()
Sea Level Pressure  
Sea Level Pressure 29.80 in    
Wind  
Wind Speed 6 mph ()    
Max Wind Speed 12 mph    
Max Gust Speed -    
Visibility 6.5 miles    
Events Rain    
Averages and records for this station are not official NWS values.
T = Trace of Precipitation, MM = Missing Value Source: Averaged Metar Reports

Daily Weather History Graph

Daily Weather History Graph

Search for Another Location

Airport:

Trip Planner

Search our weather history database for the weather conditions in past years. The results will help you decide how hot, cold, wet, or windy it might be!

Date:

Astronomy

Oct. 11, 2012 Rise Set
Actual Time 7:59 AM CEST 6:57 PM CEST
Civil Twilight 7:26 AM CEST 7:30 PM CEST
Nautical Twilight 6:47 AM CEST 8:08 PM CEST
Astronomical Twilight 6:09 AM CEST 8:47 PM CEST
Moon 2:53 AM CEST (10/11) 4:48 PM CEST (10/11)
Length of Visible Light 12h 04m
Length of Day
10h 57m
Waning Crescent, 20% of the Moon is Illuminated
Oct 11
Waning Crescent
Oct 15
New
Oct 22
First Quarter
Oct 29
Full
Nov 7
Last Quarter

Hourly Weather History & Observations

Time (CEST) Temp. Windchill Dew Point Humidity Pressure Visibility Wind Dir Wind Speed Gust Speed Precip Events Conditions
12:20 AM 41.0 °F 39.0 °F 37.4 °F 87% 29.98 in 4.3 mi East 3.5 mph - N/A   Unknown
12:50 AM 41.0 °F 38.0 °F 37.4 °F 87% 29.98 in - East 4.6 mph - N/A   Clear
1:20 AM 41.0 °F 37.1 °F 37.4 °F 87% 29.95 in - East 5.8 mph - N/A   Clear
1:50 AM 41.0 °F 37.1 °F 37.4 °F 87% 29.95 in - East 5.8 mph - N/A   Clear
2:00 AM 41 °F - 37 °F 81% 29.96 in 8 mi East 4.5 mph - -  
2:20 AM 41.0 °F 38.0 °F 37.4 °F 87% 29.95 in - ESE 4.6 mph - N/A   Clear
2:50 AM 39.2 °F 35.9 °F 35.6 °F 87% 29.92 in 6.2 mi ESE 4.6 mph - N/A   Mostly Cloudy
3:20 AM 39.2 °F 35.9 °F 37.4 °F 93% 29.92 in - East 4.6 mph - N/A   Clear
3:50 AM 39.2 °F 35.9 °F 35.6 °F 87% 29.92 in 5.0 mi ESE 4.6 mph - N/A   Overcast
4:20 AM 39.2 °F 34.2 °F 37.4 °F 93% 29.92 in 6.2 mi East 6.9 mph - N/A   Mostly Cloudy
4:50 AM 39.2 °F 35.0 °F 37.4 °F 93% 29.89 in 6.2 mi ESE 5.8 mph - N/A   Mostly Cloudy
5:20 AM 37.4 °F 33.8 °F 35.6 °F 93% 29.89 in - ESE 4.6 mph - N/A   Clear
5:50 AM 39.2 °F 35.9 °F 37.4 °F 93% 29.89 in 6.2 mi ESE 4.6 mph - N/A   Overcast
6:20 AM 41.0 °F 37.1 °F 39.2 °F 93% 29.89 in 6.2 mi ESE 5.8 mph - N/A   Overcast
6:50 AM 41.0 °F 37.1 °F 39.2 °F 93% 29.89 in 6.2 mi ESE 5.8 mph - N/A   Mostly Cloudy
7:20 AM 41.0 °F 36.4 °F 37.4 °F 87% 29.86 in 6.2 mi ESE 6.9 mph - N/A   Mostly Cloudy
7:50 AM 39.2 °F 35.0 °F 37.4 °F 93% 29.86 in 6.2 mi ESE 5.8 mph - N/A   Partly Cloudy
8:00 AM 39 °F - 36 °F 87% 29.87 in 9 mi ESE 6.7 mph - -   Scattered Clouds
8:20 AM 37.4 °F 32.8 °F 35.6 °F 93% 29.86 in - ESE 5.8 mph - N/A   Clear
8:50 AM 39.2 °F 35.0 °F 37.4 °F 93% 29.86 in - ESE 5.8 mph - N/A   Clear
9:20 AM 42.8 °F 39.3 °F 39.2 °F 87% 29.86 in - ESE 5.8 mph - N/A   Clear
9:50 AM 44.6 °F 40.7 °F 39.2 °F 81% 29.86 in - ESE 6.9 mph - N/A   Clear
10:20 AM 46.4 °F 41.9 °F 41.0 °F 81% 29.83 in - ESE 9.2 mph - N/A   Clear
10:50 AM 48.2 °F - 41.0 °F 76% 29.83 in - ESE 8.1 mph - N/A   Clear
11:00 AM 48 °F - 42 °F 72% 29.85 in 9 mi ESE 6.7 mph - -   Clear
11:20 AM 50.0 °F - 42.8 °F 76% 29.83 in - SE 8.1 mph - N/A   Clear
11:50 AM 51.8 °F - 42.8 °F 71% 29.83 in - SE 6.9 mph - N/A   Clear
12:20 PM 53.6 °F - 44.6 °F 72% 29.80 in - SE 8.1 mph - N/A   Clear
12:50 PM 55.4 °F - 44.6 °F 67% 29.80 in - ESE 6.9 mph - N/A   Clear
1:20 PM 55.4 °F - 46.4 °F 72% 29.80 in - ESE 9.2 mph - N/A   Clear
1:50 PM 57.2 °F - 46.4 °F 67% 29.77 in - East 10.4 mph - N/A   Clear
2:00 PM 57 °F - 46 °F 57% 29.79 in 9 mi East 11.2 mph - -   Clear
2:20 PM 57.2 °F - 46.4 °F 67% 29.77 in - ESE 9.2 mph - N/A   Clear
2:50 PM 59.0 °F - 46.4 °F 63% 29.77 in - ESE 10.4 mph - N/A   Clear
3:20 PM 60.8 °F - 48.2 °F 63% 29.74 in - ESE 10.4 mph - N/A   Clear
3:50 PM 60.8 °F - 48.2 °F 63% 29.74 in - ESE 11.5 mph - N/A   Clear
4:20 PM 60.8 °F - 48.2 °F 63% 29.71 in - SE 9.2 mph - N/A   Clear
4:50 PM 59.0 °F - 46.4 °F 63% 29.71 in - ESE 10.4 mph - N/A   Clear
5:00 PM 59 °F - 47 °F 55% 29.72 in 9 mi ESE 11.2 mph - -   Clear
5:20 PM 57.2 °F - 48.2 °F 72% 29.71 in - ESE 10.4 mph - N/A   Clear
5:50 PM 57.2 °F - 48.2 °F 72% 29.68 in - East 9.2 mph - N/A   Clear
6:20 PM 57.2 °F - 48.2 °F 72% 29.68 in - ESE 8.1 mph - N/A   Clear
6:50 PM 55.4 °F - 48.2 °F 77% 29.68 in - East 8.1 mph - N/A   Clear
7:20 PM 55.4 °F - 48.2 °F 77% 29.68 in - East 9.2 mph - N/A   Clear
7:50 PM 55.4 °F - 48.2 °F 77% 29.68 in 6.2 mi ESE 8.1 mph - N/A   Partly Cloudy
8:00 PM 54 °F - 47 °F 71% 29.69 in 9 mi ESE 8.9 mph - -   Partly Cloudy
8:20 PM 53.6 °F - 46.4 °F 77% 29.68 in 6.2 mi ESE 6.9 mph - N/A   Scattered Clouds
8:50 PM 55.4 °F - 48.2 °F 77% 29.68 in 6.2 mi ESE 5.8 mph - N/A   Mostly Cloudy
9:20 PM 53.6 °F - 50.0 °F 88% 29.68 in 6.2 mi ESE 5.8 mph - N/A   Mostly Cloudy
9:50 PM 53.6 °F - 50.0 °F 88% 29.65 in 4.3 mi ESE 6.9 mph - N/A Rain Light Rain
10:20 PM 53.6 °F - 50.0 °F 88% 29.65 in 6.2 mi ESE 8.1 mph - N/A   Mostly Cloudy
10:50 PM 53.6 °F - 50.0 °F 88% 29.65 in 6.2 mi ESE 8.1 mph - N/A   Mostly Cloudy
11:00 PM 53 °F - 51 °F 88% 29.68 in 7 mi ESE 6.7 mph - - Rain Light Rain
11:20 PM 53.6 °F - 51.8 °F 94% 29.65 in - ESE 8.1 mph - N/A Rain Rain Showers
11:50 PM 53.6 °F - 51.8 °F 94% 29.65 in 3.1 mi ESE 6.9 mph - N/A   Overcast